Location: Elstree
(51.6403°N, 0.2969°W)
Time: 08:29:28
(UTC+00:00)

Envisat - Pass Details

Date: 02 December 2022
Orbit: 763 x 765 km, 98.2° (Epoch: 04 February)

Event Time Altitude Azimuth Distance (km) Brightness Sun altitude
Rises 06:35:07 0° 2° (N) 3,248 6.0 -10.5°
Reaches altitude 10° 06:38:53 10° 334° (NNW) 2,316 5.0 -9.9°
Maximum altitude 06:40:49 12° 311° (NW) 2,160 4.7 -9.7°
Enters shadow 06:41:34 12° 302° (WNW) 2,181 4.7 -9.6°
